Sioux Falls, SD

10:28 PM CDT on October 20, 2019 (GMT -0500)
Foss

Weather History for KFSD - August, 2019

Change the Weather History Date:

Thursday, August 22, 2019

  Actual Average Record
Temperature  
Mean Temperature 65 °F 70 °F  
Max Temperature 77 °F 81 °F 103 °F (1971)
Min Temperature 53 °F 59 °F 41 °F (1904)
Degree Days  
Heating Degree Days 0 1  
Month to date heating degree days 0 9  
Since 1 June heating degree days 20 68  
Since 1 July heating degree days 0 17  
Cooling Degree Days 0 6  
Month to date cooling degree days 161 154  
Year to date cooling degree days 689 581  
Since 1 June cooling degree days 674 545  
Growing Degree Days 15 (Base 50)    
Moisture  
Dew Point 58 °F    
Average Humidity 76    
Maximum Humidity 100    
Minimum Humidity 56    
Precipitation  
Precipitation 0.00 in 0.09 in 1.38 in (1957)
Month to date precipitation 1.84 2.18  
Year to date precipitation 29.03 18.52  
Snow  
Snow 0.00 in 0.00 in 0.00 in ()
Month to date snowfall T 0.0  
Since 1 June snowfall T 0.0  
Since 1 July snowfall T 0.0  
Snow Depth 0.00 in    
Sea Level Pressure  
Sea Level Pressure 30.06 in    
Wind  
Wind Speed 5 mph ()    
Max Wind Speed 15 mph    
Max Gust Speed 22 mph    
Visibility 10.0 miles    
Events      
T = Trace of Precipitation, MM = Missing Value Source: Averaged Metar Reports

Daily Weather History Graph

Daily Weather History Graph

Search for Another Location

Airport or City:

Astronomy

Aug. 22, 2019 Rise Set
Actual Time 6:39 AM CDT 8:19 PM CDT
Civil Twilight 6:08 AM CDT 8:49 PM CDT
Nautical Twilight 5:32 AM CDT 9:26 PM CDT
Astronomical Twilight 4:52 AM CDT 10:06 PM CDT
Moon 11:57 PM CDT (8/22) 1:28 PM CDT (8/22)
Length of Visible Light 14h 40m
Length of Day
13h 40m
Waning Gibbous, 59% of the Moon is Illuminated
Aug 22
Waning Gibbous
Aug 23
Last Quarter
Aug 30
New
Sep 5
First Quarter
Sep 13
Full

Hourly Weather History & Observations

Time (CDT) Temp. Dew Point Humidity Pressure Visibility Wind Dir Wind Speed Gust Speed Precip Events Conditions
12:56 AM 60.1 °F 57.9 °F 93% 30.08 in 10.0 mi Calm Calm - N/A   Clear
1:56 AM 57.9 °F 55.9 °F 93% 30.07 in 10.0 mi Calm Calm - N/A   Clear
2:56 AM 55.9 °F 55.9 °F 100% 30.06 in 10.0 mi Calm Calm - N/A   Clear
3:56 AM 55.0 °F 54.0 °F 96% 30.05 in 10.0 mi NNE 3.5 mph - N/A   Clear
4:56 AM 55.0 °F 53.1 °F 93% 30.05 in 10.0 mi North 3.5 mph - N/A   Partly Cloudy
5:56 AM 55.0 °F 53.1 °F 93% 30.06 in 10.0 mi NNE 3.5 mph - N/A   Partly Cloudy
6:56 AM 54.0 °F 53.1 °F 97% 30.07 in 10.0 mi NNE 3.5 mph - N/A   Scattered Clouds
7:56 AM 60.1 °F 57.0 °F 90% 30.08 in 10.0 mi Calm Calm - N/A   Scattered Clouds
8:56 AM 64.0 °F 60.1 °F 87% 30.09 in 10.0 mi East 4.6 mph - N/A   Scattered Clouds
9:56 AM 69.1 °F 61.0 °F 75% 30.07 in 10.0 mi SE 8.1 mph - N/A   Scattered Clouds
10:56 AM 71.1 °F 57.0 °F 61% 30.09 in 10.0 mi South 12.7 mph - N/A   Scattered Clouds
11:56 AM 72.0 °F 57.0 °F 59% 30.08 in 10.0 mi SSE 8.1 mph - N/A   Scattered Clouds
12:56 PM 75.0 °F 60.1 °F 60% 30.06 in 10.0 mi East 10.4 mph - N/A   Mostly Cloudy
1:56 PM 75.0 °F 61.0 °F 62% 30.05 in 10.0 mi East 6.9 mph - N/A   Scattered Clouds
2:56 PM 75.9 °F 61.0 °F 60% 30.04 in 10.0 mi ESE 13.8 mph - N/A   Mostly Cloudy
3:56 PM 75.9 °F 59.0 °F 56% 30.02 in 10.0 mi ESE 12.7 mph - N/A   Mostly Cloudy
4:56 PM 75.9 °F 60.1 °F 58% 30.01 in 10.0 mi SE 11.5 mph - N/A   Mostly Cloudy
5:56 PM 73.9 °F 59.0 °F 59% 30.01 in 10.0 mi ESE 15.0 mph - N/A   Mostly Cloudy
6:56 PM 73.0 °F 57.9 °F 59% 30.02 in 10.0 mi SE 10.4 mph - N/A   Overcast
7:56 PM 71.1 °F 59.0 °F 66% 30.03 in 10.0 mi East 8.1 mph - N/A   Mostly Cloudy
8:56 PM 70.0 °F 57.9 °F 65% 30.04 in 10.0 mi ESE 10.4 mph - N/A   Mostly Cloudy
9:56 PM 66.0 °F 57.9 °F 75% 30.06 in 10.0 mi East 9.2 mph - N/A   Mostly Cloudy
10:56 PM 64.0 °F 57.0 °F 78% 30.08 in 10.0 mi East 8.1 mph - N/A   Partly Cloudy
11:56 PM 63.0 °F 55.9 °F 78% 30.09 in 10.0 mi East 9.2 mph - N/A   Scattered Clouds